Fort Yukon, AK

3:49 AM AKDT on July 21, 2017 (GMT -0800)
Fort Yukon

Weather History for PFYU - September, 2012

Change the Weather History Date:

Saturday, September 1, 2012

  Actual Average Record
Temperature  
Mean Temperature 48 °F -  
Max Temperature 53 °F 55 °F 66 °F (2008)
Min Temperature 44 °F 37 °F 23 °F (2013)
Degree Days  
Heating Degree Days 16    
Moisture  
Dew Point 45 °F    
Average Humidity 89    
Maximum Humidity 94    
Minimum Humidity 74    
Precipitation  
Precipitation 0.00 in - - ()
Sea Level Pressure  
Sea Level Pressure 29.53 in    
Wind  
Wind Speed 3 mph (NE)    
Max Wind Speed 9 mph    
Max Gust Speed -    
Visibility 10 miles    
Events      
Averages and records for this station are not official NWS values.
T = Trace of Precipitation, MM = Missing Value Source: NWS Daily Summary

Daily Weather History Graph

Daily Weather History Graph

Search for Another Location

Airport or City:

Trip Planner

Search our weather history database for the weather conditions in past years. The results will help you decide how hot, cold, wet, or windy it might be!

Date:

Astronomy

Sep. 01, 2012 Rise Set
Actual Time 6:16 AM AKDT 9:02 PM AKDT
Civil Twilight 5:16 AM AKDT 10:02 PM AKDT
Nautical Twilight 3:46 AM AKDT 11:29 PM AKDT
Astronomical Twilight Sun does not set Sun does not set
Moon 8:11 PM AKDT (9/1) 8:34 AM AKDT (9/1)
Length of Visible Light 16h 46m
Length of Day
14h 46m
Full, 98% of the Moon is Illuminated
Sep 1
Full
Sep 8
Last Quarter
Sep 15
New
Sep 22
First Quarter
Sep 29
Full

Hourly Weather History & Observations

Time (AKDT) Temp. Windchill Dew Point Humidity Pressure Visibility Wind Dir Wind Speed Gust Speed Precip Events Conditions
12:16 AM 44.6 °F - 42.8 °F 93% 29.67 in 10.0 mi Calm Calm - N/A   Clear
12:36 AM 42.8 °F - 39.2 °F 87% 29.67 in 10.0 mi Calm Calm - N/A   Clear
12:56 AM 42.8 °F - 39.2 °F 87% 29.67 in 8.0 mi Calm Calm - N/A   Scattered Clouds
1:16 AM 42.8 °F - 41.0 °F 93% 29.67 in 10.0 mi Calm Calm - N/A   Partly Cloudy
1:36 AM 42.8 °F - 41.0 °F 93% 29.66 in 10.0 mi Calm Calm - N/A   Partly Cloudy
1:56 AM 44.6 °F - 42.8 °F 93% 29.66 in 10.0 mi Calm Calm - N/A   Mostly Cloudy
2:16 AM 44.6 °F - 41.0 °F 87% 29.66 in 10.0 mi Calm Calm - N/A   Mostly Cloudy
2:36 AM 44.6 °F - 42.8 °F 93% 29.66 in 10.0 mi Calm Calm - N/A   Scattered Clouds
2:56 AM 44.6 °F 43.1 °F 41.0 °F 87% 29.65 in 10.0 mi NE 3.5 mph - N/A   Mostly Cloudy
3:16 AM 44.6 °F 43.1 °F 42.8 °F 93% 29.65 in 10.0 mi NE 3.5 mph - N/A   Overcast
3:36 AM 44.6 °F 43.1 °F 42.8 °F 93% 29.64 in 10.0 mi NE 3.5 mph - N/A   Overcast
3:56 AM 44.6 °F 42.2 °F 42.8 °F 93% 29.64 in 10.0 mi ENE 4.6 mph - N/A   Overcast
4:16 AM 44.6 °F 42.2 °F 42.8 °F 93% 29.63 in 10.0 mi NE 4.6 mph - N/A   Mostly Cloudy
4:36 AM 46.4 °F 45.2 °F 42.8 °F 87% 29.63 in 10.0 mi NE 3.5 mph - N/A   Mostly Cloudy
4:56 AM 46.4 °F 44.3 °F 44.6 °F 93% 29.62 in 10.0 mi ENE 4.6 mph - N/A   Mostly Cloudy
5:16 AM 46.4 °F 45.2 °F 42.8 °F 87% 29.62 in 10.0 mi East 3.5 mph - N/A   Overcast
5:36 AM 44.6 °F 43.1 °F 42.8 °F 93% 29.62 in 10.0 mi ENE 3.5 mph - N/A   Overcast
5:56 AM 44.6 °F - 42.8 °F 93% 29.62 in 10.0 mi Calm Calm - N/A   Overcast
6:16 AM 44.6 °F 42.2 °F 42.8 °F 93% 29.61 in 10.0 mi NE 4.6 mph - N/A   Overcast
6:36 AM 44.6 °F 43.1 °F 42.8 °F 93% 29.61 in 10.0 mi NE 3.5 mph - N/A   Overcast
6:56 AM 44.6 °F 41.4 °F 42.8 °F 93% 29.60 in 10.0 mi NE 5.8 mph - N/A   Overcast
7:16 AM 46.4 °F 42.4 °F 42.8 °F 87% 29.59 in 10.0 mi NE 8.1 mph - N/A   Mostly Cloudy
7:36 AM 46.4 °F 41.9 °F 42.8 °F 87% 29.58 in 10.0 mi NE 9.2 mph - N/A   Mostly Cloudy
7:56 AM 46.4 °F 42.9 °F 42.8 °F 87% 29.58 in 10.0 mi NE 6.9 mph - N/A   Partly Cloudy
8:16 AM 48.2 °F - 42.8 °F 82% 29.58 in 10.0 mi NE 6.9 mph - N/A   Clear
8:36 AM 48.2 °F - 42.8 °F 82% 29.58 in 10.0 mi NE 6.9 mph - N/A   Mostly Cloudy
8:56 AM 48.2 °F - 42.8 °F 82% 29.58 in 10.0 mi NE 8.1 mph - N/A   Mostly Cloudy
9:16 AM 48.2 °F - 42.8 °F 82% 29.57 in 10.0 mi NE 9.2 mph - N/A   Overcast
9:36 AM 48.2 °F - 42.8 °F 82% 29.56 in 10.0 mi NE 6.9 mph - N/A   Overcast
9:56 AM 48.2 °F - 44.6 °F 87% 29.56 in 10.0 mi NE 8.1 mph - N/A   Overcast
10:16 AM 50.0 °F - 44.6 °F 82% 29.55 in 10.0 mi NE 8.1 mph - N/A   Overcast
10:36 AM 50.0 °F - 44.6 °F 82% 29.55 in 10.0 mi NE 5.8 mph - N/A   Overcast
10:56 AM 50.0 °F - 46.4 °F 87% 29.54 in 10.0 mi NE 4.6 mph - N/A   Overcast
11:16 AM 50.0 °F - 46.4 °F 87% 29.53 in 10.0 mi NNE 6.9 mph - N/A   Overcast
11:36 AM 50.0 °F - 46.4 °F 87% 29.52 in 10.0 mi NNE 5.8 mph - N/A   Overcast
11:56 AM 50.0 °F - 46.4 °F 87% 29.51 in 10.0 mi NNE 6.9 mph - N/A   Overcast
12:16 PM 50.0 °F - 46.4 °F 87% 29.52 in 10.0 mi NE 5.8 mph - N/A   Overcast
12:36 PM 50.0 °F - 46.4 °F 87% 29.51 in 10.0 mi NE 9.2 mph - N/A   Overcast
12:56 PM 50.0 °F - 46.4 °F 87% 29.50 in 10.0 mi NNE 8.1 mph - N/A   Overcast
1:16 PM 50.0 °F - 46.4 °F 87% 29.48 in 10.0 mi NNE 8.1 mph - N/A   Overcast
1:36 PM 51.8 °F - 48.2 °F 88% 29.47 in 10.0 mi NNE 9.2 mph - N/A   Overcast
2:16 PM 51.8 °F - 48.2 °F 88% 29.49 in 10.0 mi ENE 3.5 mph - N/A   Overcast
2:36 PM 53.6 °F - 48.2 °F 82% 29.48 in 10.0 mi Calm Calm - N/A   Overcast
3:16 PM 53.6 °F - 48.2 °F 82% 29.47 in 10.0 mi NE 4.6 mph - N/A   Overcast
3:36 PM 53.6 °F - 48.2 °F 82% 29.47 in 10.0 mi NE 5.8 mph - N/A   Overcast
3:56 PM 53.6 °F - 48.2 °F 82% 29.47 in 10.0 mi Calm Calm - N/A   Overcast
4:36 PM 53.6 °F - 48.2 °F 82% 29.46 in 10.0 mi NE 4.6 mph - N/A   Overcast
4:56 PM 51.8 °F - 48.2 °F 88% 29.46 in 10.0 mi Calm Calm - N/A   Overcast
5:16 PM 51.8 °F - 48.2 °F 88% 29.46 in 10.0 mi North 3.5 mph - N/A   Overcast
5:36 PM 51.8 °F - 46.4 °F 82% 29.46 in 10.0 mi NNE 3.5 mph - N/A   Overcast
5:56 PM 51.8 °F - 48.2 °F 88% 29.45 in 10.0 mi North 3.5 mph - N/A   Overcast
6:16 PM 51.8 °F - 48.2 °F 88% 29.44 in 10.0 mi NNE 4.6 mph - N/A   Overcast
6:36 PM 51.8 °F - 48.2 °F 88% 29.44 in 10.0 mi NE 3.5 mph - N/A   Overcast
6:56 PM 51.8 °F - 48.2 °F 88% 29.44 in 10.0 mi NNE 4.6 mph - N/A   Overcast
7:16 PM 51.8 °F - 48.2 °F 88% 29.44 in 10.0 mi NNE 3.5 mph - N/A   Overcast
7:36 PM 50.0 °F - 48.2 °F 94% 29.44 in 8.0 mi NNE 5.8 mph - N/A   Overcast
7:56 PM 50.0 °F - 48.2 °F 94% 29.43 in 8.0 mi NNE 5.8 mph - N/A   Overcast
8:16 PM 50.0 °F - 48.2 °F 94% 29.43 in 9.0 mi NE 4.6 mph - N/A   Overcast
8:36 PM 50.0 °F - 48.2 °F 94% 29.43 in 9.0 mi NE 5.8 mph - N/A   Overcast
8:56 PM 50.0 °F - 48.2 °F 94% 29.43 in 9.0 mi NE 3.5 mph - N/A   Overcast
9:16 PM 50.0 °F - 48.2 °F 94% 29.43 in 9.0 mi NE 3.5 mph - N/A   Overcast
9:36 PM 48.2 °F - 46.4 °F 93% 29.43 in 10.0 mi Calm Calm - N/A   Overcast
9:56 PM 48.2 °F - 46.4 °F 93% 29.43 in 10.0 mi Calm Calm - N/A   Overcast
10:16 PM 48.2 °F - 46.4 °F 93% 29.42 in 10.0 mi Calm Calm - N/A   Overcast
10:36 PM 48.2 °F - 46.4 °F 93% 29.43 in 9.0 mi Calm Calm - N/A   Overcast
10:56 PM 48.2 °F - 46.4 °F 93% 29.43 in 9.0 mi Calm Calm - N/A   Overcast
11:16 PM 48.2 °F - 46.4 °F 93% 29.43 in 8.0 mi Calm Calm - N/A   Mostly Cloudy
11:36 PM 48.2 °F - 46.4 °F 93% 29.43 in 8.0 mi Calm Calm - N/A   Overcast
11:56 PM 48.2 °F - 46.4 °F 93% 29.43 in 10.0 mi Calm Calm - N/A   Overcast